#timestamp,LO_Frequency,Temp,Hum 
1440759615.6,286078798.7,28.5,49.1 
1440759635.7,286078799.3,28.5,49.1 
1440759655.8,286078800.6,28.5,48.1 
1440759676.0,286078806.2,28.5,46.1 
1440759696.1,286078799.3,28.5,46.6 
1440759715.3,286078797.3,28.5,46.6 
1440759735.4,286078799.5,28.5,47.1 
1440759755.6,286078801.2,28.5,47.6 
1440759775.7,286078798.3,28.5,48.1 
1440759795.8,286078799.9,28.5,48.6 
1440759816.0,286078798.2,28.5,48.1 
1440759836.1,286078799.7,28.5,48.6 
1440759855.3,286078799.4,28.5,49.1 
1440759875.4,286078797.5,28.5,49.1 
1440759895.5,286078799.6,28.5,49.5 
1440759915.7,286078798.9,28.5,49.1 
1440759935.8,286078803.8,28.5,46.1 
1440759955.9,286078800.2,28.5,46.6 
1440759976.0,286078801.1,28.5,47.6 
1440759995.3,286078797.1,28.5,48.1 
1440760015.4,286078803.1,28.5,48.1 
1440760035.5,286078797.0,28.5,48.6 
1440760055.6,286078800.8,28.5,48.6 
1440760075.8,286078797.2,28.5,48.6 
1440760095.9,286078802.0,29.1,48.6 
1440760116.0,286078798.7,29.1,48.6 
1440760135.2,286078800.6,29.1,48.6 
1440760155.4,286078801.0,29.1,48.6 
1440760175.5,286078799.4,29.1,48.6 
1440760195.6,286078799.7,29.1,48.6 
1440760215.7,286078799.0,29.1,48.6 
1440760235.9,286078798.6,29.1,48.6 
1440760256.0,286078802.7,29.1,48.6 
1440760275.2,286078801.5,29.1,48.6 
1440760295.3,286078797.6,29.1,49.1 
1440760315.5,286078798.9,29.1,49.1 
1440760335.6,286078798.7,29.1,49.1 
1440760355.7,286078800.7,29.1,49.1 
1440760375.8,286078798.4,29.1,49.1 
1440760396.0,286078800.8,29.1,49.1 
1440760416.1,286078798.5,29.1,49.1 
1440760435.3,286078803.1,29.1,49.5 
1440760455.4,286078796.9,29.1,49.5 
1440760475.6,286078800.4,29.1,49.5 
1440760495.7,286078799.3,29.1,49.5 
1440760515.8,286078798.5,29.1,49.5 
1440760536.0,286078802.7,29.1,50.0 
1440760556.1,286078798.5,29.1,50.0 
1440760575.3,286078800.7,29.1,50.0 
1440760595.4,286078799.2,29.1,50.0 
1440760615.6,286078801.5,29.1,50.0 
1440760635.7,286078797.2,29.1,50.0 
1440760655.8,286078802.9,29.1,50.0 
1440760675.9,286078799.6,29.1,50.5 
1440760696.1,286078798.7,29.1,50.5 
1440760715.3,286078800.5,29.1,50.5 
1440760735.4,286078800.7,29.1,50.5 
1440760755.5,286078799.6,29.1,51.0 
1440760775.7,286078799.4,29.1,50.5 
1440760795.8,286078798.9,29.1,50.5 
1440760815.9,286078800.1,29.1,51.0 
1440760836.0,286078800.6,29.1,51.0 
1440760855.3,286078802.9,29.1,51.0 
1440760875.4,286078797.5,29.1,51.0 
1440760895.5,286078801.0,29.1,51.0 
1440760915.6,286078801.4,29.1,51.0 
1440760935.8,286078797.4,29.1,51.0 
1440760955.9,286078801.4,29.1,51.0 
1440760976.0,286078797.4,29.1,51.0 
1440760995.2,286078803.1,29.1,50.5 
1440761015.4,286078796.9,29.1,51.0 
1440761035.5,286078802.2,29.1,51.0 
1440761055.6,286078799.7,29.1,51.0 
1440761075.7,286078798.5,29.1,51.0 
1440761095.9,286078798.9,29.1,51.0 
1440761116.0,286078800.5,29.1,51.0 
1440761135.2,286078800.6,29.1,51.0 
1440761155.3,286078799.1,29.1,51.0 
1440761175.5,286078802.6,29.1,51.0 
1440761195.6,286078797.1,29.1,51.0 
1440761215.7,286078800.3,29.1,51.0 
1440761235.8,286078800.2,29.1,51.0 
1440761256.0,286078799.2,29.1,51.0 
1440761276.1,286078801.2,29.1,51.0 
1440761295.3,286078799.5,29.1,50.5 
1440761315.4,286078801.3,29.1,50.5 
1440761335.6,286078799.3,29.1,50.5 
1440761355.7,286078801.5,29.1,50.5 
1440761375.8,286078799.2,29.1,50.5 
1440761396.0,286078799.8,29.1,50.5 
1440761416.1,286078799.6,29.1,50.5 
1440761435.3,286078799.0,29.1,50.0 
1440761455.4,286078801.4,29.1,50.0 
1440761475.6,286078799.4,29.1,50.0 
1440761495.7,286078799.9,29.1,50.0 
1440761515.8,286078799.6,29.1,50.0 
1440761535.9,286078798.5,29.1,50.0 
1440761556.1,286078800.7,29.1,50.0 
1440761575.3,286078800.8,29.1,50.0 
1440761595.4,286078799.1,29.1,50.0 
1440761615.5,286078803.0,29.1,50.0 
1440761635.7,286078797.8,29.1,50.0 
1440761655.8,286078800.7,29.1,50.0 
1440761675.9,286078799.3,29.1,50.0 
1440761696.0,286078799.4,29.1,50.0 
1440761715.3,286078800.4,29.1,50.0 
1440761735.4,286078799.2,29.1,50.0 
1440761755.5,286078800.9,29.1,50.0 
1440761775.6,286078798.9,29.1,50.0 
1440761795.8,286078801.1,29.1,50.0 
1440761815.9,286078799.6,29.1,49.5 
1440761836.0,286078801.1,29.1,49.5 
1440761855.2,286078798.5,29.1,49.5 
1440761875.4,286078802.8,29.1,49.5 
1440761895.5,286078799.9,29.1,49.5 
1440761915.6,286078797.7,29.1,49.5 
1440761935.7,286078798.4,29.1,49.5 
1440761955.9,286078802.4,29.1,49.5 
1440761976.0,286078799.6,29.1,49.5 
1440761995.2,286078800.9,29.1,49.5 
1440762015.3,286078799.6,29.1,49.5 
1440762035.5,286078796.9,29.1,49.5 
1440762055.6,286078803.0,29.1,49.5 
1440762075.7,286078798.6,29.1,49.5 
1440762095.9,286078800.3,29.1,49.5 
1440762116.1,286078801.2,29.1,49.5 
1440762135.3,286078798.7,29.1,49.5 
1440762155.4,286078798.5,29.1,49.5 
1440762175.5,286078803.1,29.1,49.5 
1440762195.7,286078797.4,29.1,49.5 
1440762215.8,286078800.3,29.1,49.5 
1440762235.9,286078800.3,29.1,49.5 
1440762256.0,286078798.9,29.1,49.5 
1440762275.3,286078802.9,29.1,49.5 
1440762295.4,286078799.6,29.1,49.5 
1440762315.5,286078799.3,29.1,49.5 
1440762335.7,286078799.7,29.1,49.5 
1440762355.8,286078798.5,29.1,49.5 
1440762375.9,286078800.5,29.1,49.5 
1440762396.1,286078801.5,29.1,49.5 
1440762415.3,286078799.5,29.1,49.5 
1440762435.4,286078800.6,29.1,49.5 
1440762455.6,286078799.9,29.1,49.5 
1440762475.7,286078798.7,29.1,49.5 
1440762495.8,286078802.7,29.1,49.5 
1440762515.9,286078797.8,29.1,49.5 
1440762536.1,286078800.1,29.1,49.5 
1440762555.3,286078801.0,29.1,49.5 
1440762575.4,286078799.2,29.1,49.5 
1440762595.5,286078801.5,29.1,49.5 
1440762615.7,286078796.8,29.1,49.5 
1440762635.8,286078802.3,29.1,49.5 
1440762655.9,286078798.4,29.1,49.5 
1440762676.1,286078802.7,29.1,49.5 
1440762695.3,286078799.6,29.1,49.1 
1440762715.4,286078798.7,29.1,49.1 
1440762735.5,286078801.2,29.1,49.5 
1440762755.7,286078799.2,29.1,49.5 
1440762775.8,286078800.5,29.1,49.5 
1440762795.9,286078800.9,29.1,49.5 
1440762816.0,286078798.7,29.1,49.5 
1440762835.3,286078799.2,29.1,49.5 
1440762855.4,286078801.2,29.1,49.5 
1440762875.5,286078798.9,29.1,49.5 
1440762895.6,286078800.6,29.1,49.5 
1440762915.8,286078800.8,29.1,49.5 
1440762935.9,286078799.4,29.1,49.5 
1440762956.0,286078801.4,29.1,49.5 
1440762975.2,286078796.8,29.1,49.5 
1440762995.4,286078801.0,29.1,49.5 
1440763015.5,286078798.9,29.1,49.5 
1440763035.6,286078802.9,29.1,49.5 
1440763055.7,286078797.1,29.1,49.5 
1440763075.9,286078801.1,29.1,49.5 
1440763096.0,286078799.9,29.1,49.5 
1440763115.2,286078799.4,29.1,49.5 
1440763135.4,286078800.2,29.1,49.1 
1440763155.5,286078800.9,29.1,49.1 
1440763175.6,286078801.3,29.1,49.1 
1440763195.7,286078797.4,29.1,49.1 
